Weather History for Moses Lake, WA

Change the Weather History Date:

Monday, April 15, 2013

  Actual Average Record
Temperature  
Mean Temperature 46 °F 50 °F  
Max Temperature 57 °F 63 °F 76 °F (1984)
Min Temperature 35 °F 37 °F 25 °F (2005)
Degree Days  
Heating Degree Days 19 15  
Month to date heating degree days 202 248  
Since 1 July heating degree days 4933 5420  
Cooling Degree Days 0 0  
Month to date cooling degree days 0 0  
Year to date cooling degree days 0 0  
Moisture  
Dew Point 26 °F    
Average Humidity 51    
Maximum Humidity 79    
Minimum Humidity 22    
Precipitation  
Precipitation 0.00 in 0.02 in 0.07 in (2011)
Month to date precipitation 0.31 0.36  
Year to date precipitation 1.33 3.08  
Sea Level Pressure  
Sea Level Pressure 30.02 in    
Wind  
Wind Speed 11 mph (North)    
Max Wind Speed 23 mph    
Max Gust Speed 30 mph    
Visibility 10 miles    
Events      
T = Trace of Precipitation, MM = Missing Value Source: NWS Daily Summary

Daily Weather History Graph

Daily Weather History Graph

Search for Another Location

Airport:

Trip Planner

Search our weather history database for the weather conditions in past years. The results will help you decide how hot, cold, wet, or windy it might be!

Date:

Astronomy

Apr. 15, 2013 Rise Set
Actual Time 6:08 AM PDT 7:46 PM PDT
Civil Twilight 5:36 AM PDT 8:19 PM PDT
Nautical Twilight 4:57 AM PDT 8:58 PM PDT
Astronomical Twilight 4:14 AM PDT 9:41 PM PDT
Moon 9:27 AM PDT (4/15) 12:14 AM PDT (4/15)
Length of Visible Light 14h 42m
Length of Day
13h 38m
Waxing Crescent, 25% of the Moon is Illuminated
Apr 15
Waxing Crescent
Apr 18
First Quarter
Apr 25
Full
May 2
Last Quarter
May 9
New

Hourly Weather History & Observations

Time (PDT) Temp. Windchill Dew Point Humidity Pressure Visibility Wind Dir Wind Speed Gust Speed Precip Events Conditions
12:52 AM 35.1 °F 28.6 °F 27.0 °F 72% 29.91 in 10.0 mi North 8.1 mph - N/A   Partly Cloudy
1:52 AM 35.1 °F 30.1 °F 28.0 °F 76% 30.05 in 10.0 mi North 5.8 mph - N/A   Mostly Cloudy
2:52 AM 39.0 °F 33.4 °F 30.9 °F 73% 30.05 in 10.0 mi North 8.1 mph - N/A   Overcast
3:52 AM 41.0 °F 34.3 °F 32.0 °F 70% 29.91 in 10.0 mi North 11.5 mph - N/A   Overcast
4:52 AM 39.0 °F 32.3 °F 33.1 °F 79% 29.92 in 10.0 mi NNW 10.4 mph - N/A   Overcast
5:52 AM 39.0 °F 33.4 °F 32.0 °F 76% 29.93 in 10.0 mi NNW 8.1 mph - N/A   Mostly Cloudy
6:52 AM 39.9 °F 32.9 °F 28.9 °F 65% 29.94 in 10.0 mi NNE 11.5 mph 18.4 mph N/A   Overcast
7:52 AM 42.1 °F 35.7 °F 28.9 °F 60% 29.96 in 10.0 mi North 11.5 mph - N/A   Overcast
8:52 AM 45.0 °F 37.1 °F 19.9 °F 37% 29.98 in 10.0 mi NE 19.6 mph - N/A   Overcast
9:52 AM 48.9 °F - 19.9 °F 32% 29.99 in 10.0 mi NE 15.0 mph - N/A   Partly Cloudy
10:52 AM 44.1 °F 35.9 °F 27.0 °F 51% 30.01 in 10.0 mi NNE 19.6 mph - N/A   Overcast
11:52 AM 46.0 °F 44.8 °F 25.0 °F 44% 30.02 in 10.0 mi ESE 3.5 mph - N/A   Overcast
12:52 PM 54.0 °F - 19.9 °F 26% 30.00 in 10.0 mi ENE 15.0 mph 19.6 mph N/A   Scattered Clouds
1:52 PM 54.0 °F - 18.0 °F 24% 30.01 in 10.0 mi NE 10.4 mph - N/A   Overcast
2:52 PM 55.0 °F - 18.0 °F 23% 30.15 in 10.0 mi NNE 9.2 mph 21.9 mph N/A   Overcast
3:52 PM 54.0 °F - 18.0 °F 24% 30.00 in 10.0 mi North 9.2 mph - N/A   Mostly Cloudy
4:52 PM 51.1 °F - 25.0 °F 36% 30.04 in 10.0 mi North 12.7 mph - N/A   Overcast
5:52 PM 48.9 °F - 28.0 °F 44% 30.05 in 10.0 mi North 19.6 mph - N/A   Overcast
6:52 PM 46.0 °F 40.6 °F 28.9 °F 51% 30.07 in 10.0 mi NW 11.5 mph - N/A   Overcast
7:52 PM 45.0 °F 39.7 °F 30.0 °F 56% 30.08 in 10.0 mi NNW 10.4 mph - N/A   Overcast
8:52 PM 43.0 °F 36.8 °F 30.9 °F 62% 30.11 in 10.0 mi NNW 11.5 mph - N/A   Overcast
9:52 PM 39.0 °F 32.8 °F 30.0 °F 70% 30.12 in 10.0 mi NNW 9.2 mph - N/A   Mostly Cloudy
10:52 PM 37.9 °F 32.1 °F 28.0 °F 68% 30.13 in 10.0 mi North 8.1 mph - N/A   Partly Cloudy
11:52 PM 39.0 °F 32.8 °F 28.0 °F 65% 30.14 in 10.0 mi North 9.2 mph - N/A   Overcast